クラーク彗星

71P/Clark (2023)

English version
Home page
Updated on April 15, 2023

---------------------------------------------------------------------

・ プロフィール

・ 写真集

・ 軌道要素

Epoch 2023 Feb. 25.0 TT = JDT 2460000.5
T 2023 Jan. 22.78101 TT                                 Rudenko
q   1.5888209            (2000.0)            P               Q
n   0.17729708     Peri.  209.05969     -0.03265095     +0.98945143
a   3.1381112      Node    59.39360     -0.88239353     +0.03778002
e   0.4937015      Incl.    9.43814     -0.46937786     -0.13985187
P   5.56
>From 1075 observations 2016 Feb. 12-2023 Mar. 8, mean residual 0".7.
     Nongravitational parameters A1 = +3.09, A2 = +0.3682.

・ 星図

・ 光度変化

        m1 = 7.2 + 5 logΔ + 20.0 log r(t - 30)

---------------------------------------------------------------------

軌道要素はM.P.E.C. 2023-F81に掲載されたものです。
星図はステラナビゲータ Ver.10 (アストロアーツ) で作成したものです。
光度グラフはComet for Windowsで作成したものです。

---------------------------------------------------------------------

Copyright(C) Seiichi Yoshida (comet@aerith.net). All rights reserved.